{"data":{"norad_id":55045,"epoch":"2026-05-25T03:40:33.291840Z","epoch_age_seconds":51917,"freshness":"FRESH","line1":"1 55045U 23001AN  26145.15316310  .00010750  00000+0  37600-3 0  9994","line2":"2 55045  97.3352 208.5402 0010888 137.4789 222.7297 15.29650890188738","mean_motion":15.2965089,"eccentricity":0.0010888,"inclination_deg":97.3352,"raan_deg":208.5402,"arg_perigee_deg":137.4789,"mean_anomaly_deg":222.7297,"bstar":0.000376,"rev_number":18873,"period_min":94.139127392656,"perigee_km":469.39138794569,"apogee_km":484.31881874994,"semimajor_km":6854.9921033478,"source":"CELESTRAK","updated_at":"2026-05-25T13:37:58.810845Z"}}